This is the latest recevied weather packets stored in our database for station/object OK1FPA-15. If no packets are shown the sender has not sent any weather packets the latest 1 day(s).
| Time | Temp. | Humidity | Pressure | Rain* | Wind** | Luminosity | Snow |
|---|---|---|---|---|---|---|---|
| 1778114864 | 12.22° C | 94% | 1008 hPa | - | - | - | - |
| 1778113664 | 12.78° C | 96% | 1007.9 hPa | - | - | - | - |
| 1778113064 | 12.78° C | 96% | 1007.9 hPa | - | - | - | - |
| 1778107663 | 13.33° C | 94% | 1007.4 hPa | - | - | - | - |
| 1778107063 | 13.33° C | 92% | 1007.3 hPa | - | - | - | - |
| 1778105863 | 13.89° C | 92% | 1007.1 hPa | - | - | - | - |
| 1778104663 | 13.33° C | 92% | 1006.6 hPa | - | - | - | - |
| 1778104063 | 13.33° C | 92% | 1006.8 hPa | - | - | - | - |
| 1778103463 | 13.33° C | 92% | 1006.8 hPa | - | - | - | - |
| 1778102863 | 13.33° C | 92% | 1006.7 hPa | - | - | - | - |
| 1778101663 | 13.33° C | 91% | 1006.5 hPa | - | - | - | - |
| 1778100463 | 13.89° C | 90% | 1006.4 hPa | - | - | - | - |
| 1778097463 | 14.44° C | 88% | 1006.1 hPa | - | - | - | - |
| 1778096863 | 14.44° C | 87% | 1006.1 hPa | - | - | - | - |
| 1778095663 | 15.56° C | 81% | 1005.6 hPa | - | - | - | - |
| 1778092663 | 17.78° C | 58% | 1005.2 hPa | - | - | - | - |
| 1778091463 | 18.33° C | 53% | 1004.9 hPa | - | - | - | - |
| 1778090263 | 18.89° C | 51% | 1004.9 hPa | - | - | - | - |
| 1778089063 | 18.89° C | 52% | 1004.9 hPa | - | - | - | - |
| 1778087863 | 19.44° C | 51% | 1004.6 hPa | - | - | - | - |
| 1778084263 | 23.33° C | 37% | 1004.4 hPa | - | - | - | - |
| 1778083063 | 22.78° C | 41% | 1004.7 hPa | - | - | - | - |
| 1778082463 | 22.78° C | 39% | 1004.8 hPa | - | - | - | - |
| 1778080663 | 22.22° C | 40% | 1005.1 hPa | - | - | - | - |
| 1778080063 | 22.22° C | 39% | 1005.1 hPa | - | - | - | - |
* Rain since midnight (hover to see other rain measurements)
** Current wind speed in m/s (hover to see current wind gust speed)